Date,TemperatureHighF,TemperatureAvgF,TemperatureLowF,DewpointHighF,DewpointAvgF,DewpointLowF,HumidityHigh,HumidityAvg,HumidityLow,PressureMaxIn,PressureMinIn,WindSpeedMaxMPH,WindSpeedAvgMPH,GustSpeedMaxMPH,PrecipitationSumIn
2013-10-1,77,62,48,66,60,47,99,91,65,29.68,29.60,8,1,11,0.00
2013-10-2,87,68,54,71,54,38,99,70,22,29.79,29.64,6,1,8,0.01
2013-10-3,77,63,53,74,61,52,99,95,83,29.73,29.60,6,1,8,0.07
2013-10-4,86,71,62,73,67,62,99,89,61,29.70,29.60,4,1,6,0.00
2013-10-5,82,69,63,75,68,62,99,96,70,29.69,29.50,6,1,8,0.26
2013-10-6,67,60,51,67,58,47,99,95,75,29.51,29.38,5,2,8,0.28
2013-10-7,64,49,40,57,46,40,99,89,53,29.79,29.40,10,2,14,0.09
2013-10-8,77,55,38,55,46,38,99,78,37,29.90,29.78,6,1,8,0.00
2013-10-9,79,56,39,59,45,37,99,72,26,29.96,29.85,8,1,11,0.00
2013-10-10,82,57,39,60,46,39,99,75,28,29.88,29.77,8,0,11,0.00
2013-10-11,81,57,37,56,46,36,99,76,26,29.81,29.70,5,1,8,0.00
2013-10-12,83,63,42,64,52,42,99,75,33,29.79,29.67,8,1,11,0.11
2013-10-13,69,54,40,61,46,40,99,79,39,30.05,29.79,13,2,14,0.01
2013-10-14,69,52,39,50,43,39,99,77,37,30.08,29.88,8,1,13,0.00
2013-10-15,64,53,40,61,52,40,99,94,80,29.89,29.49,8,2,9,0.18
2013-10-16,61,50,45,60,50,44,99,97,91,29.59,29.49,8,1,11,0.04
2013-10-17,52,49,44,51,48,44,99,99,94,29.59,29.44,8,1,14,0.26
2013-10-18,65,47,35,50,43,34,99,86,47,29.60,29.52,8,1,14,0.01
2013-10-19,57,45,41,50,41,30,99,87,37,29.58,29.43,10,1,16,0.19
2013-10-20,66,51,36,48,42,36,99,76,40,29.57,29.45,11,2,14,0.04
2013-10-21,56,48,41,50,43,30,99,83,64,29.57,29.47,11,2,19,0.19
2013-10-22,52,40,31,39,32,27,98,72,50,29.60,29.55,8,2,14,0.00
2013-10-23,49,37,29,41,33,25,99,86,63,29.63,29.50,14,1,18,0.00
2013-10-24,44,35,33,42,34,31,99,97,83,29.89,29.62,5,1,10,0.19
2013-10-25,52,39,33,47,32,26,99,80,40,30.01,29.75,8,1,15,0.22
2013-10-26,54,45,37,41,33,27,86,64,49,29.75,29.47,13,4,19,0.00
2013-10-27,60,44,33,44,34,27,99,73,31,29.72,29.64,8,1,11,0.00
2013-10-28,58,42,29,44,36,29,99,79,52,30.02,29.70,9,2,13,0.00
2013-10-29,57,44,35,42,37,32,98,77,55,30.06,29.86,8,2,11,0.00
2013-10-30,68,52,35,57,47,34,99,86,52,29.86,29.55,7,2,11,0.63
2013-10-31,63,60,53,62,59,52,99,99,97,29.56,28.86,9,4,16,1.89